User: anonymous   Login
Location: Rehoboth Beach
(38.7438°N, 75.1341°W)
Time: 08:11:33
(UTC-04:00)
Language:

Cosmos 1452 Rocket - Orbit

View from above orbital plane
View from above orbital plane
View from above satellite
View from above satellite

Ground track
Ground track

The orbit data is extracted from the following two-line orbital elements,

1 13992U 83031B   17235.01903670 -.00000051  00000-0 -84705-5 0  9990
2 13992  74.0503 244.5682 0005807 220.7078 202.5344 14.36092475798401
Epoch (UTC): 23 August 2017 00:27:24
Eccentricity: 0.0005807
inclination: 74.0503°
perigee height: 767 km
apogee height: 775 km
right ascension of ascending node: 244.5682°
argument of perigee: 220.7078°
revolutions per day: 14.36092475
mean anomaly at epoch: 202.5344°
orbit number at epoch: 79840

The dashed part of the orbit path shows where the satellite is in the earth's shadow,  

DLR